Hugo, OK

3:36 AM CST on February 20, 2017 (GMT -0600)
Stamper Municipal

Weather History for KHHW - January, 2015

Change the Weather History Date:

Monday, January 19, 2015

  Actual Average Record
Temperature  
Mean Temperature 52 °F -  
Max Temperature 67 °F 51 °F 67 °F (2015)
Min Temperature 38 °F 32 °F 28 °F (2016)
Degree Days  
Heating Degree Days 12    
Growing Degree Days 2 (Base 50)    
Moisture  
Dew Point 31 °F    
Average Humidity 46    
Maximum Humidity 69    
Minimum Humidity 27    
Precipitation  
Precipitation 0.00 in - - ()
Sea Level Pressure  
Sea Level Pressure 30.00 in    
Wind  
Wind Speed 4 mph (South)    
Max Wind Speed 8 mph    
Max Gust Speed -    
Visibility 10 miles    
Events      
Averages and records for this station are not official NWS values.
T = Trace of Precipitation, MM = Missing Value Source: NWS Daily Summary

Daily Weather History Graph

Daily Weather History Graph

Search for Another Location

Airport or City:

Trip Planner

Search our weather history database for the weather conditions in past years. The results will help you decide how hot, cold, wet, or windy it might be!

Date:

Astronomy

Jan. 19, 2015 Rise Set
Actual Time 7:26 AM CST 5:39 PM CST
Civil Twilight 6:59 AM CST 6:06 PM CST
Nautical Twilight 6:28 AM CST 6:37 PM CST
Astronomical Twilight 5:58 AM CST 7:07 PM CST
Moon 6:20 AM CST (1/19) 5:07 PM CST (1/19)
Length of Visible Light 11h 07m
Length of Day
10h 13m
Waning Crescent, 1% of the Moon is Illuminated
Jan 19
Waning Crescent
Jan 20
New
Jan 26
First Quarter
Feb 3
Full
Feb 11
Last Quarter

Hourly Weather History & Observations

Time (CST) Temp. Windchill Dew Point Humidity Pressure Visibility Wind Dir Wind Speed Gust Speed Precip Events Conditions
12:15 AM 51.8 °F - 27.5 °F 39% 30.07 in 10.0 mi SW 8.1 mph - N/A   Clear
12:35 AM 50.9 °F - 27.3 °F 40% 30.07 in 10.0 mi SSW 6.9 mph - N/A   Clear
12:55 AM 51.1 °F - 26.8 °F 39% 30.06 in 10.0 mi SSW 5.8 mph - N/A   Clear
1:15 AM 50.5 °F - 27.0 °F 40% 30.06 in 10.0 mi SSW 5.8 mph - N/A   Clear
1:35 AM 50.4 °F - 26.6 °F 40% 30.06 in 10.0 mi SSW 3.5 mph - N/A   Clear
1:55 AM 49.8 °F - 27.1 °F 41% 30.06 in 10.0 mi SSW 6.9 mph - N/A   Clear
2:15 AM 49.3 °F - 27.3 °F 43% 30.05 in 10.0 mi SSW 5.8 mph - N/A   Clear
2:35 AM 48.6 °F - 27.5 °F 44% 30.05 in 10.0 mi South 4.6 mph - N/A   Clear
2:55 AM 47.8 °F - 27.9 °F 46% 30.04 in 10.0 mi South 5.8 mph - N/A   Clear
3:15 AM 48.0 °F - 28.0 °F 46% 30.04 in 10.0 mi South 5.8 mph - N/A   Clear
3:35 AM 48.2 °F - 28.2 °F 46% 30.03 in 10.0 mi South 6.9 mph - N/A   Clear
3:55 AM 47.5 °F - 28.0 °F 47% 30.03 in 10.0 mi South 4.6 mph - N/A   Clear
4:15 AM 46.6 °F - 28.4 °F 49% 30.02 in 10.0 mi South 3.5 mph - N/A   Clear
4:35 AM 43.0 °F - 28.2 °F 56% 30.03 in 10.0 mi Calm Calm - N/A   Clear
4:55 AM 43.0 °F - 28.4 °F 56% 30.03 in 10.0 mi Calm Calm - N/A   Clear
5:15 AM 41.0 °F 37.1 °F 28.8 °F 62% 30.02 in 10.0 mi SSE 5.8 mph - N/A   Clear
5:35 AM 43.5 °F 39.4 °F 28.8 °F 56% 30.02 in 10.0 mi South 6.9 mph - N/A   Clear
5:55 AM 43.5 °F 41.9 °F 29.3 °F 57% 30.02 in 10.0 mi South 3.5 mph - N/A   Clear
6:15 AM 44.1 °F - 29.1 °F 56% 30.03 in 10.0 mi Calm Calm - N/A   Clear
6:35 AM 40.5 °F - 28.6 °F 63% 30.03 in 10.0 mi Calm Calm - N/A   Clear
6:55 AM 38.3 °F - 28.8 °F 69% 30.03 in 10.0 mi Calm Calm - N/A   Clear
7:15 AM 38.5 °F 35.0 °F 28.8 °F 68% 30.04 in 10.0 mi ESE 4.6 mph - N/A   Clear
7:35 AM 39.2 °F - 29.3 °F 68% 30.03 in 10.0 mi Calm Calm - N/A   Clear
7:55 AM 39.9 °F 37.8 °F 29.7 °F 67% 30.03 in 10.0 mi ESE 3.5 mph - N/A   Clear
8:15 AM 41.7 °F - 30.9 °F 66% 30.04 in 10.0 mi Calm Calm - N/A   Clear
8:35 AM 45.0 °F - 32.0 °F 60% 30.04 in 10.0 mi Calm Calm - N/A   Clear
8:55 AM 48.6 °F - 32.0 °F 53% 30.04 in 10.0 mi SSE 3.5 mph - N/A   Clear
9:15 AM 50.4 °F - 31.3 °F 48% 30.04 in 10.0 mi South 4.6 mph - N/A   Clear
9:35 AM 53.4 °F - 31.5 °F 43% 30.04 in 10.0 mi SSW 3.5 mph - N/A   Clear
9:55 AM 54.3 °F - 30.9 °F 41% 30.03 in 10.0 mi SSW 4.6 mph - N/A   Clear
10:15 AM 54.7 °F - 31.5 °F 41% 30.04 in 10.0 mi SSW 5.8 mph - N/A   Clear
10:35 AM 55.0 °F - 31.6 °F 41% 30.04 in 10.0 mi South 3.5 mph - N/A   Clear
10:55 AM 56.5 °F - 31.5 °F 39% 30.04 in 10.0 mi SSW 4.6 mph - N/A   Clear
11:15 AM 56.3 °F - 31.6 °F 39% 30.03 in 10.0 mi SSW 4.6 mph - N/A   Clear
11:35 AM 56.8 °F - 32.2 °F 39% 30.03 in 10.0 mi SSE 4.6 mph - N/A   Clear
11:55 AM 57.6 °F - 32.2 °F 38% 30.02 in 10.0 mi Calm Calm - N/A   Clear
12:15 PM 59.0 °F - 32.2 °F 36% 30.01 in 10.0 mi Calm Calm - N/A   Clear
12:35 PM 61.3 °F - 32.4 °F 34% 29.99 in 10.0 mi Calm Calm - N/A   Clear
12:55 PM 61.7 °F - 31.8 °F 33% 29.98 in 10.0 mi Calm Calm - N/A   Clear
1:15 PM 61.9 °F - 32.0 °F 33% 29.97 in 10.0 mi Calm Calm - N/A   Clear
1:35 PM 63.0 °F - 32.0 °F 31% 29.96 in 10.0 mi South 3.5 mph - N/A   Clear
1:55 PM 65.5 °F - 32.0 °F 29% 29.95 in 10.0 mi Calm Calm - N/A   Clear
2:15 PM 66.6 °F - 32.4 °F 28% 29.95 in 10.0 mi South 6.9 mph - N/A   Clear
2:35 PM 66.9 °F - 32.4 °F 28% 29.94 in 10.0 mi South 5.8 mph - N/A   Clear
2:55 PM 67.6 °F - 32.9 °F 28% 29.94 in 10.0 mi South 6.9 mph - N/A   Clear
3:15 PM 67.1 °F - 32.5 °F 28% 29.94 in 10.0 mi SW 4.6 mph - N/A   Clear
3:55 PM 67.6 °F - 32.7 °F 27% 29.94 in 10.0 mi South 4.6 mph - N/A   Clear
4:15 PM 67.3 °F - 32.7 °F 28% 29.94 in 10.0 mi South 3.5 mph - N/A   Clear
4:35 PM 67.1 °F - 32.9 °F 28% 29.94 in 10.0 mi Calm Calm - N/A   Clear
4:55 PM 66.4 °F - 33.3 °F 29% 29.94 in 10.0 mi SW 3.5 mph - N/A   Clear
5:15 PM 65.5 °F - 33.1 °F 30% 29.94 in 10.0 mi Calm Calm - N/A   Clear
5:35 PM 64.4 °F - 33.3 °F 31% 29.95 in 10.0 mi Calm Calm - N/A   Clear
5:55 PM 61.5 °F - 34.0 °F 36% 29.95 in 10.0 mi South 4.6 mph - N/A   Clear
6:15 PM 61.7 °F - 33.6 °F 35% 29.96 in 10.0 mi Calm Calm - N/A   Clear
6:35 PM 61.7 °F - 33.3 °F 34% 29.96 in 10.0 mi SSE 3.5 mph - N/A   Clear
6:55 PM 57.0 °F - 33.8 °F 42% 29.96 in 10.0 mi South 4.6 mph - N/A   Clear
7:15 PM 58.5 °F - 34.0 °F 40% 29.96 in 10.0 mi Calm Calm - N/A   Clear
7:35 PM 54.7 °F - 34.3 °F 46% 29.97 in 10.0 mi Calm Calm - N/A   Clear
7:55 PM 56.5 °F - 34.0 °F 43% 29.96 in 10.0 mi Calm Calm - N/A   Clear
8:15 PM 54.5 °F - 34.3 °F 47% 29.96 in 10.0 mi South 4.6 mph - N/A   Clear
8:35 PM 57.2 °F - 33.8 °F 41% 29.96 in 10.0 mi South 3.5 mph - N/A   Clear
8:55 PM 50.4 °F - 34.3 °F 54% 29.96 in 10.0 mi ENE 3.5 mph - N/A   Clear
9:15 PM 49.5 °F - 34.5 °F 56% 29.94 in 10.0 mi SE 4.6 mph - N/A   Clear
9:35 PM 49.8 °F - 34.5 °F 56% 29.95 in 10.0 mi East 3.5 mph - N/A   Clear
9:55 PM 48.9 °F - 34.2 °F 57% 29.96 in 10.0 mi ENE 3.5 mph - N/A   Clear
10:15 PM 47.1 °F - 34.5 °F 62% 29.97 in 10.0 mi NNE 3.5 mph - N/A   Clear
10:35 PM 47.1 °F - 35.1 °F 63% 29.97 in 10.0 mi NNE 5.8 mph - N/A   Clear
10:55 PM 45.9 °F 44.6 °F 34.7 °F 65% 29.97 in 10.0 mi NNE 3.5 mph - N/A   Clear
11:15 PM 45.9 °F 44.6 °F 34.5 °F 65% 29.97 in 10.0 mi NE 3.5 mph - N/A   Clear
11:35 PM 46.8 °F - 35.2 °F 64% 29.97 in 10.0 mi NE 3.5 mph - N/A   Clear
11:55 PM 45.0 °F 43.5 °F 35.1 °F 68% 29.97 in 10.0 mi North 3.5 mph - N/A   Clear